STARLINK-1026

Last updated on Thu Dec 12 2019 00:02:03 GMT+0000 (Coordinated Universal Time)

1 44731U 19074U 19345.58335648 .00059323 00000-0 42428-3 0 9999 2 44731 53.0091 21.4981 0001891 23.5515 35.8041 15.73185224 4737

Satellite not in orbit